| time (UTC) | temp F | wind direction | speed knots | gust knots | rain 1hr in | rain 24hr in | rain mn in | humidity % | barometer mb |
| 20260507084557 | 49 | 129 | 0.0 | 0.9 | 0.01 | 0.67 | 0.01 | 90 | 1008.3 |
| 20260507083050 | 49 | 129 | 0.0 | 0.0 | 0.01 | 0.67 | 0.01 | 90 | 1008.3 |
| 20260507081548 | 49 | 129 | 0.0 | 0.0 | 0.00 | 0.66 | 0.00 | 89 | 1008.2 |
| 20260507074545 | 50 | 125 | 0.0 | 2.6 | 0.00 | 0.66 | 0.00 | 88 | 1008.2 |
| 20260507073048 | 50 | 59 | 0.0 | 0.0 | 0.00 | 0.66 | 0.00 | 88 | 1008.1 |
| 20260507071542 | 50 | 59 | 0.0 | 0.0 | 0.00 | 0.66 | 0.00 | 88 | 1007.8 |
| 20260507070042 | 50 | 24 | 0.0 | 0.0 | 0.00 | 0.66 | 0.00 | 89 | 1007.9 |
| 20260507064541 | 50 | 24 | 0.0 | 0.9 | 0.00 | 0.66 | 0.00 | 89 | 1007.6 |
| 20260507063040 | 50 | 24 | 0.0 | 1.7 | 0.00 | 0.69 | 0.00 | 90 | 1007.6 |
| 20260507061538 | 51 | 24 | 0.0 | 1.7 | 0.01 | 0.69 | 0.00 | 89 | 1007.6 |
| 20260507060036 | 51 | 323 | 0.0 | 1.7 | 0.01 | 0.69 | 0.00 | 90 | 1007.6 |
| 20260507054538 | 51 | 256 | 0.0 | 1.7 | 0.01 | 0.69 | 0.69 | 91 | 1008.0 |
| 20260507053034 | 51 | 161 | 0.0 | 1.7 | 0.01 | 0.69 | 0.69 | 91 | 1008.2 |
| 20260507051533 | 52 | 162 | 0.0 | 1.7 | 0.01 | 0.69 | 0.69 | 90 | 1008.2 |
| 20260507050034 | 52 | 163 | 0.9 | 1.7 | 0.01 | 0.68 | 0.68 | 90 | 1008.1 |
| 20260507044530 | 53 | 267 | 0.9 | 2.6 | 0.03 | 0.68 | 0.68 | 89 | 1007.8 |
| 20260507043028 | 54 | 331 | 0.0 | 1.7 | 0.03 | 0.68 | 0.68 | 90 | 1007.8 |
| 20260507041525 | 55 | 21 | 0.9 | 2.6 | 0.03 | 0.68 | 0.68 | 91 | 1007.9 |
| 20260507040024 | 55 | 9 | 0.0 | 2.6 | 0.03 | 0.67 | 0.67 | 90 | 1007.9 |
| 20260507034522 | 56 | 304 | 0.9 | 3.5 | 0.01 | 0.65 | 0.65 | 90 | 1007.3 |
| 20260507033023 | 57 | 9 | 0.9 | 1.7 | 0.01 | 0.65 | 0.65 | 91 | 1006.9 |
| 20260507031517 | 58 | 348 | 0.9 | 4.3 | 0.01 | 0.65 | 0.65 | 90 | 1006.8 |
| 20260507030019 | 59 | 46 | 0.9 | 4.3 | 0.00 | 0.64 | 0.64 | 93 | 1006.7 |
| 20260507024516 | 59 | 28 | 0.9 | 2.6 | 0.00 | 0.64 | 0.64 | 93 | 1006.6 |
| 20260507023015 | 59 | 144 | 0.0 | 1.7 | 0.00 | 0.64 | 0.64 | 92 | 1006.6 |
| 20260507021514 | 58 | 144 | 0.0 | 1.7 | 0.00 | 0.64 | 0.64 | 92 | 1006.3 |
| 20260507020014 | 58 | 267 | 0.0 | 3.5 | 0.00 | 0.64 | 0.64 | 92 | 1006.4 |
| 20260507014521 | 58 | 9 | 0.9 | 3.5 | 0.00 | 0.64 | 0.64 | 92 | 1006.4 |
| 20260507013032 | 58 | 263 | 0.0 | 3.5 | 0.00 | 0.64 | 0.64 | 92 | 1006.5 |
| 20260507011514 | 58 | 176 | 0.0 | 2.6 | 0.00 | 0.64 | 0.64 | 92 | 1006.5 |
| 20260507010023 | 59 | 329 | 0.0 | 2.6 | 0.00 | 0.64 | 0.64 | 92 | 1006.6 |
| 20260507004512 | 59 | 360 | 0.9 | 3.5 | 0.00 | 0.82 | 0.64 | 92 | 1006.6 |
| 20260507003011 | 59 | 9 | 0.9 | 4.3 | 0.00 | 0.82 | 0.64 | 91 | 1006.3 |
| 20260507001510 | 59 | 351 | 0.9 | 2.6 | 0.01 | 0.82 | 0.64 | 91 | 1006.4 |
| 20260507000011 | 59 | 87 | 0.0 | 4.3 | 0.01 | 0.82 | 0.64 | 91 | 1006.3 |
| 20260506234514 | 59 | 30 | 0.9 | 5.2 | 0.01 | 1.06 | 0.64 | 91 | 1006.3 |
| 20260506233010 | 59 | 75 | 0.0 | 3.5 | 0.01 | 1.06 | 0.64 | 91 | 1006.1 |
| 20260506231508 | 59 | 147 | 1.7 | 4.3 | 0.01 | 1.06 | 0.64 | 91 | 1006.2 |
| 20260506230009 | 59 | 96 | 0.0 | 4.3 | 0.00 | 1.05 | 0.63 | 91 | 1006.3 |
| 20260506224506 | 59 | 110 | 0.9 | 3.5 | 0.01 | 1.32 | 0.63 | 90 | 1006.5 |
| 20260506223004 | 59 | 350 | 0.9 | 5.2 | 0.01 | 1.32 | 0.63 | 90 | 1006.4 |
| 20260506221502 | 59 | 97 | 1.7 | 7.0 | 0.01 | 1.32 | 0.63 | 90 | 1006.6 |
| 20260506220000 | 59 | 338 | 0.9 | 3.5 | 0.01 | 1.32 | 0.63 | 89 | 1006.5 |
| 20260506214600 | 59 | 13 | 0.9 | 7.0 | 0.02 | 1.31 | 0.62 | 88 | 1006.6 |
| 20260506213122 | 60 | 25 | 0.9 | 4.3 | 0.03 | 1.87 | 0.62 | 88 | 1006.7 |
| 20260506211558 | 60 | 125 | 0.9 | 7.0 | 0.03 | 1.87 | 0.62 | 89 | 1007.0 |
| 20260506204556 | 60 | 333 | 2.6 | 7.8 | 0.01 | 1.85 | 0.60 | 87 | 1007.5 |
| 20260506203055 | 61 | 55 | 0.9 | 4.3 | 0.00 | 2.00 | 0.59 | 86 | 1007.3 |
| 20260506201553 | 62 | 145 | 0.9 | 6.1 | 0.00 | 2.00 | 0.59 | 85 | 1007.3 |
| 20260506194552 | 63 | 163 | 0.9 | 3.5 | 0.00 | 2.00 | 0.59 | 83 | 1007.2 |
| 20260506193051 | 63 | 127 | 0.0 | 4.3 | 0.00 | 2.00 | 0.59 | 81 | 1007.2 |
| 20260506191548 | 64 | 63 | 0.9 | 5.2 | 0.00 | 2.00 | 0.59 | 78 | 1007.0 |
| 20260506184551 | 67 | 109 | 0.9 | 2.6 | 0.05 | 2.00 | 0.59 | 72 | 1007.3 |
| 20260506183054 | 68 | 233 | 1.7 | 6.1 | 0.07 | 2.00 | 0.59 | 67 | 1007.3 |
| 20260506181611 | 69 | 210 | 0.9 | 2.6 | 0.07 | 2.00 | 0.59 | 64 | 1007.4 |
| 20260506174543 | 71 | 306 | 3.5 | 10.4 | 0.10 | 1.97 | 0.55 | 53 | 1007.3 |
| 20260506173055 | 72 | 30 | 1.7 | 6.1 | 0.09 | 1.94 | 0.52 | 54 | 1007.3 |
| 20260506171540 | 72 | 76 | 0.9 | 8.7 | 0.09 | 1.94 | 0.52 | 55 | 1007.3 |
| 20260506164538 | 71 | 163 | 2.6 | 9.6 | 0.02 | 1.87 | 0.45 | 58 | 1007.9 |
| 20260506163037 | 71 | 60 | 0.9 | 7.0 | 0.02 | 1.85 | 0.43 | 58 | 1008.1 |
| 20260506161532 | 71 | 14 | 0.9 | 3.5 | 0.04 | 1.85 | 0.43 | 58 | 1008.2 |
| 20260506154532 | 69 | 164 | 1.7 | 7.0 | 0.13 | 1.85 | 0.43 | 60 | 1008.9 |
| 20260506153029 | 69 | 326 | 1.7 | 7.0 | 0.15 | 1.83 | 0.41 | 60 | 1009.2 |
| 20260506151529 | 70 | 32 | 0.9 | 7.8 | 0.23 | 1.81 | 0.39 | 60 | 1009.3 |
| 20260506144525 | 69 | 324 | 1.7 | 9.6 | 0.20 | 1.73 | 0.31 | 62 | 1009.4 |
| 20260506143023 | 69 | 24 | 0.9 | 7.8 | 0.16 | 1.68 | 0.26 | 64 | 1009.3 |
| 20260506141519 | 68 | 33 | 2.6 | 11.3 | 0.06 | 1.58 | 0.16 | 64 | 1009.2 |
| 20260506134516 | 66 | 219 | 1.7 | 8.7 | 0.02 | 1.53 | 0.11 | 68 | 1009.5 |
| 20260506133013 | 65 | 344 | 1.7 | 4.3 | 0.02 | 1.53 | 0.11 | 69 | 1009.9 |
| 20260506131516 | 64 | 201 | 1.7 | 8.7 | 0.03 | 1.52 | 0.10 | 70 | 1010.1 |
| 20260506124509 | 64 | 69 | 0.9 | 7.8 | 0.05 | 1.51 | 0.09 | 71 | 1010.0 |
| 20260506123006 | 63 | 355 | 1.7 | 7.0 | 0.05 | 1.51 | 0.09 | 72 | 1009.9 |
| 20260506121505 | 63 | 336 | 0.9 | 4.3 | 0.04 | 1.49 | 0.07 | 72 | 1010.2 |
| 20260506114513 | 62 | 148 | 0.9 | 6.1 | 0.01 | 1.46 | 0.04 | 74 | 1010.2 |
| 20260506113012 | 62 | 9 | 1.7 | 5.2 | 0.01 | 1.46 | 0.04 | 74 | 1010.4 |
| 20260506111503 | 61 | 342 | 0.0 | 5.2 | 0.00 | 1.45 | 0.03 | 75 | 1010.4 |
| 20260506104503 | 59 | 12 | 0.9 | 3.5 | 0.00 | 1.45 | 0.03 | 77 | 1010.6 |
| 20260506103001 | 59 | 348 | 0.9 | 6.1 | 0.00 | 1.45 | 0.03 | 77 | 1010.3 |
| 20260506101600 | 59 | 151 | 1.7 | 5.2 | 0.00 | 1.45 | 0.03 | 77 | 1010.4 |
| 20260506094557 | 59 | 95 | 0.0 | 4.3 | 0.00 | 1.45 | 0.03 | 75 | 1010.2 |
| 20260506093057 | 59 | 96 | 0.9 | 3.5 | 0.00 | 1.45 | 0.03 | 75 | 1010.2 |
| 20260506091600 | 59 | 105 | 0.9 | 4.3 | 0.00 | 1.45 | 0.03 | 75 | 1010.2 |